KE6LRO Weather Reports


Display with metric or nautical units.
time (UTC)temp
F
wind
direction
speed
MPH
gust
MPH
rain 1hr
in
rain 24hr
in
rain mn
in
humidity
%
barometer
mb
20260901073234 43 174 0.0 0.0 0.00 0.00 0.00 79 1019.3
20260901072729 43 174 0.0 0.0 0.00 0.00 0.00 79 1019.6
20260901072224 44 175 0.0 0.0 0.00 0.00 0.00 78 1019.3
20260901071725 44 174 0.0 0.0 0.00 0.00 0.00 78 1019.5
20260901071224 44 175 0.0 0.0 0.00 0.00 0.00 78 1019.6
20260901070718 44 175 0.0 0.0 0.00 0.00 0.00 78 1019.6
20260901070213 44 175 0.0 0.0 0.00 0.00 0.00 77 1019.6
20260901065712 44 175 0.0 0.0 0.00 0.00 0.00 77 1019.5
20260901065208 45 173 0.0 0.0 0.00 0.00 0.00 77 1019.7
20260901064704 44 169 0.0 0.0 0.00 0.00 0.00 78 1019.6
20260901064200 44 169 0.0 0.0 0.00 0.00 0.00 77 1019.5
20260901063657 45 169 0.0 0.0 0.00 0.00 0.00 76 1019.6
20260901063153 45 169 0.0 0.0 0.00 0.00 0.00 76 1019.7
20260901062648 45 169 0.0 0.0 0.00 0.00 0.00 75 1019.8
20260901062144 46 169 0.0 0.0 0.00 0.00 0.00 75 1019.6
20260901061641 46 169 0.0 0.0 0.00 0.00 0.00 75 1019.6
20260901061140 46 169 0.0 0.0 0.00 0.00 0.00 75 1019.7
20260901060640 46 169 0.0 0.0 0.00 0.00 0.00 75 1019.6
20260901060136 46 169 0.0 0.0 0.00 0.00 0.00 76 1019.5
20260901055631 46 169 0.0 0.0 0.00 0.00 0.00 75 1019.6
20260901055128 47 169 0.0 0.0 0.00 0.00 0.00 74 1019.6
20260901054625 47 169 0.0 0.0 0.00 0.00 0.00 74 1019.3
20260901054120 47 169 0.0 0.0 0.00 0.00 0.00 73 1019.6
20260901053616 48 169 0.0 0.0 0.00 0.00 0.00 73 1019.5
20260901053112 48 169 0.0 0.0 0.00 0.00 0.00 72 1019.6
20260901052612 47 169 0.0 0.0 0.00 0.00 0.00 74 1019.3
20260901052108 48 169 0.0 0.0 0.00 0.00 0.00 73 1019.5
20260901051607 48 169 0.0 0.0 0.00 0.00 0.00 72 1019.6
20260901051106 49 169 0.0 0.0 0.00 0.00 0.00 71 1019.3
20260901050601 49 169 0.0 0.0 0.00 0.00 0.00 71 1019.5
20260901050056 49 169 0.0 0.0 0.00 0.00 0.00 72 1019.5
20260901045551 49 169 0.0 0.0 0.00 0.00 0.00 72 1019.7
20260901045046 50 169 0.0 0.0 0.00 0.00 0.00 71 1019.6
20260901044542 50 169 0.0 0.0 0.00 0.00 0.00 69 1019.6
20260901044038 50 169 0.0 0.0 0.00 0.00 0.00 69 1019.5
20260901043533 50 169 0.0 0.0 0.00 0.00 0.00 69 1019.6
20260901043029 51 169 0.0 0.0 0.00 0.00 0.00 69 1019.6
20260901042528 51 169 0.0 0.0 0.00 0.00 0.00 68 1019.6
20260901042024 51 169 0.0 0.0 0.00 0.00 0.00 68 1019.3
20260901041519 52 169 0.0 0.0 0.00 0.00 0.00 67 1019.6
20260901041014 52 169 0.0 0.0 0.00 0.00 0.00 66 1019.6
20260901040508 53 167 0.0 0.0 0.00 0.00 0.00 65 1019.5
20260901040007 53 167 0.0 0.0 0.00 0.00 0.00 64 1019.6
20260901035505 53 167 0.0 0.0 0.00 0.00 0.00 63 1019.7
20260901034959 54 167 0.0 0.0 0.00 0.00 0.00 62 1019.6
20260901034459 54 167 0.0 0.0 0.00 0.00 0.00 62 1019.5
20260901033954 54 167 0.0 0.0 0.00 0.00 0.00 61 1019.6
20260901033453 55 167 0.0 0.0 0.00 0.00 0.00 60 1019.5
20260901032951 55 167 0.0 0.0 0.00 0.00 0.00 59 1019.7
20260901032446 56 167 0.0 0.0 0.00 0.00 0.00 57 1019.6
20260901031941 56 167 0.0 0.0 0.00 0.00 0.00 56 1019.6
20260901031436 57 167 0.0 0.0 0.00 0.00 0.00 54 1019.6
20260901030931 57 167 0.0 0.0 0.00 0.00 0.00 54 1019.3
20260901030426 58 168 0.0 0.0 0.00 0.00 0.00 52 1019.1
20260901025925 58 167 0.0 0.0 0.00 0.00 0.00 51 1019.1
20260901025420 59 167 0.0 0.0 0.00 0.00 0.00 50 1019.0
20260901024920 59 265 0.0 0.0 0.00 0.00 0.00 50 1019.1
20260901024420 60 265 0.0 0.0 0.00 0.00 0.00 49 1019.0
20260901023918 60 265 0.0 0.0 0.00 0.00 0.00 50 1018.7
20260901023413 61 265 0.0 0.0 0.00 0.00 0.00 48 1018.7
20260901022908 62 265 0.0 0.0 0.00 0.00 0.00 47 1018.6
20260901022404 62 266 0.0 0.0 0.00 0.00 0.00 46 1018.8
20260901021859 63 266 0.0 0.0 0.00 0.00 0.00 45 1018.7
20260901021354 64 282 0.0 0.0 0.00 0.00 0.00 46 1018.8
20260901020849 64 282 0.0 0.0 0.00 0.00 0.00 45 1018.6
20260901020345 65 282 0.0 0.0 0.00 0.00 0.00 44 1018.6
20260901015838 66 282 0.0 0.0 0.00 0.00 0.00 42 1018.5
20260901015335 67 282 0.0 0.0 0.00 0.00 0.00 41 1018.3
20260901014834 68 246 0.0 0.0 0.00 0.00 0.00 40 1018.5
20260901014330 68 175 0.0 0.0 0.00 0.00 0.00 40 1018.3
20260901013825 69 150 0.0 0.0 0.00 0.00 0.00 39 1018.3
20260901013321 69 64 0.0 0.0 0.00 0.00 0.00 39 1018.3
20260901012816 70 15 0.0 0.0 0.00 0.00 0.00 37 1018.2
20260901012311 71 30 0.0 1.0 0.00 0.00 0.00 34 1018.2
20260901011808 72 26 0.0 1.0 0.00 0.00 0.00 34 1018.2
20260901011302 72 16 0.0 1.0 0.00 0.00 0.00 34 1018.0
20260901010755 74 281 0.0 2.0 0.00 0.00 0.00 32 1018.0
20260901010250 75 314 2.0 2.0 0.00 0.00 0.00 29 1018.0
20260901005749 76 308 3.0 3.0 0.00 0.00 0.00 28 1018.1
20260901005244 77 300 3.0 3.0 0.00 0.00 0.00 28 1018.2
20260901004744 77 43 2.0 3.0 0.00 0.00 0.00 28 1018.1
20260901004240 78 306 2.0 2.0 0.00 0.00 0.00 28 1018.6
20260901003739 78 22 4.0 5.0 0.00 0.00 0.00 28 1018.1
20260901003234 79 302 2.0 3.0 0.00 0.00 0.00 28 1018.2
20260901002732 79 305 2.0 3.0 0.00 0.00 0.00 27 1018.2
20260901002228 78 319 2.0 3.0 0.00 0.00 0.00 27 1018.3
20260901001723 79 307 4.0 5.0 0.00 0.00 0.00 28 1018.2
20260901001218 80 322 1.0 7.0 0.00 0.00 0.00 27 1018.2
20260901000708 80 345 5.0 8.0 0.00 0.00 0.00 26 1018.5
20260901000204 80 13 4.0 8.0 0.00 0.00 0.00 25 1018.5
20260831235701 80 326 5.0 7.0 0.00 0.00 0.00 26 1018.5
20260831235157 80 340 5.0 8.0 0.00 0.00 0.00 25 1018.6
20260831234657 80 319 5.0 13.0 0.00 0.00 0.00 25 1018.6
20260831234152 80 345 5.0 8.0 0.00 0.00 0.00 25 1018.7
20260831233647 80 304 5.0 7.0 0.00 0.00 0.00 25 1018.7
20260831233143 80 299 3.0 7.0 0.00 0.00 0.00 25 1018.7
20260831232637 80 348 4.0 7.0 0.00 0.00 0.00 25 1018.8
20260831232135 80 322 5.0 9.0 0.00 0.00 0.00 25 1018.7
20260831231631 81 58 3.0 7.0 0.00 0.00 0.00 24 1019.0
20260831231126 80 321 5.0 8.0 0.00 0.00 0.00 25 1018.9
20260831230622 80 32 4.0 7.0 0.00 0.00 0.00 25 1019.0
20260831230121 80 321 5.0 8.0 0.00 0.00 0.00 25 1019.0
20260831225611 80 342 4.0 9.0 0.00 0.00 0.00 25 1019.2
20260831225110 80 25 3.0 5.0 0.00 0.00 0.00 25 1019.1
20260831224605 80 16 6.0 9.0 0.00 0.00 0.00 25 1019.3
20260831224101 79 304 3.0 6.0 0.00 0.00 0.00 25 1019.3
20260831223556 80 8 5.0 7.0 0.00 0.00 0.00 25 1019.2
20260831223052 79 333 5.0 7.0 0.00 0.00 0.00 25 1019.3
20260831222548 79 46 3.0 5.0 0.00 0.00 0.00 25 1019.7
20260831222048 79 327 5.0 8.0 0.00 0.00 0.00 25 1019.7
20260831221539 79 318 5.0 8.0 0.00 0.00 0.00 25 1019.7
20260831221039 79 300 3.0 7.0 0.00 0.00 0.00 26 1019.7
20260831220534 78 0 5.0 8.0 0.00 0.00 0.00 26 1019.9
20260831220029 78 328 8.0 10.0 0.00 0.00 0.00 26 1019.8
20260831215525 79 224 3.0 6.0 0.00 0.00 0.00 26 1019.9
20260831215020 78 349 6.0 8.0 0.00 0.00 0.00 26 1019.9
20260831214518 78 323 7.0 9.0 0.00 0.00 0.00 26 1020.0
20260831214014 78 1 3.0 9.0 0.00 0.00 0.00 27 1020.0
20260831213510 78 325 5.0 7.0 0.00 0.00 0.00 26 1020.1
20260831213005 77 299 2.0 6.0 0.00 0.00 0.00 27 1020.0
20260831212501 77 306 5.0 9.0 0.00 0.00 0.00 27 1020.2
20260831212000 77 307 4.0 8.0 0.00 0.00 0.00 27 1020.3
20260831211455 77 330 5.0 8.0 0.00 0.00 0.00 27 1020.3
20260831210954 77 306 7.0 11.0 0.00 0.00 0.00 28 1020.5
20260831210450 77 319 5.0 9.0 0.00 0.00 0.00 27 1020.5
20260831205946 77 25 9.0 11.0 0.00 0.00 0.00 27 1020.6
20260831205441 77 296 5.0 9.0 0.00 0.00 0.00 28 1020.6
20260831204937 77 323 5.0 8.0 0.00 0.00 0.00 28 1020.3
20260831204436 76 307 6.0 10.0 0.00 0.00 0.00 29 1020.7
20260831203935 75 34 6.0 9.0 0.00 0.00 0.00 29 1020.9
20260831203430 75 358 6.0 10.0 0.00 0.00 0.00 29 1020.9
20260831202928 75 3 5.0 10.0 0.00 0.00 0.00 29 1021.0
20260831202424 75 34 4.0 8.0 0.00 0.00 0.00 29 1021.0
20260831201923 75 325 3.0 7.0 0.00 0.00 0.00 29 1021.0
20260831201422 74 318 5.0 11.0 0.00 0.00 0.00 30 1021.1
20260831200918 74 30 4.0 7.0 0.00 0.00 0.00 29 1021.1
20260831200413 74 94 4.0 8.0 0.00 0.00 0.00 30 1021.3
20260831195907 73 31 5.0 8.0 0.00 0.00 0.00 30 1021.3
20260831195403 73 35 7.0 8.0 0.00 0.00 0.00 31 1021.6
20260831194858 72 32 5.0 6.0 0.00 0.00 0.00 31 1021.7
20260831194354 72 323 4.0 8.0 0.00 0.00 0.00 31 1021.7
20260831193853 72 337 2.0 9.0 0.00 0.00 0.00 31 1021.8
20260831193348 72 300 3.0 9.0 0.00 0.00 0.00 33 1021.9
20260831192844 71 319 6.0 9.0 0.00 0.00 0.00 32 1021.9
20260831192344 71 23 5.0 9.0 0.00 0.00 0.00 31 1022.1
20260831191840 72 352 5.0 7.0 0.00 0.00 0.00 32 1022.0
20260831191336 71 55 3.0 10.0 0.00 0.00 0.00 33 1022.2
20260831190831 71 8 4.0 6.0 0.00 0.00 0.00 32 1022.1
20260831190325 70 339 3.0 7.0 0.00 0.00 0.00 33 1022.5
20260831185825 70 44 4.0 5.0 0.00 0.00 0.00 34 1022.4
20260831185320 70 328 6.0 8.0 0.00 0.00 0.00 34 1022.2
20260831184819 69 39 2.0 7.0 0.00 0.00 0.00 35 1022.5
20260831184315 69 331 4.0 7.0 0.00 0.00 0.00 34 1022.7
20260831183810 68 341 3.0 7.0 0.00 0.00 0.00 35 1022.8
20260831183309 68 319 4.0 9.0 0.00 0.00 0.00 35 1022.8
20260831182809 67 342 5.0 6.0 0.00 0.00 0.00 36 1023.0
20260831182309 67 295 5.0 9.0 0.00 0.00 0.00 37 1023.0
20260831181805 67 346 5.0 6.0 0.00 0.00 0.00 37 1023.1
20260831181305 66 310 6.0 7.0 0.00 0.00 0.00 38 1023.1
20260831180800 66 35 3.0 10.0 0.00 0.00 0.00 38 1023.4
20260831180255 66 277 4.0 6.0 0.00 0.00 0.00 38 1023.4
20260831175754 65 15 4.0 7.0 0.00 0.00 0.00 38 1023.8
20260831175251 65 53 4.0 6.0 0.00 0.00 0.00 38 1023.6
20260831174746 64 29 1.0 6.0 0.00 0.00 0.00 40 1023.7
20260831174242 64 303 3.0 6.0 0.00 0.00 0.00 40 1023.7
20260831173741 62 354 4.0 11.0 0.00 0.00 0.00 42 1023.8
20260831173235 62 356 2.0 5.0 0.00 0.00 0.00 42 1023.8
20260831172730 62 327 5.0 6.0 0.00 0.00 0.00 41 1024.1
20260831172225 62 21 3.0 5.0 0.00 0.00 0.00 42 1024.2
20260831171720 61 338 4.0 7.0 0.00 0.00 0.00 42 1024.0
20260831171217 61 304 4.0 5.0 0.00 0.00 0.00 42 1024.0
20260831170714 60 86 0.0 5.0 0.00 0.00 0.00 44 1024.1
20260831170205 60 18 4.0 6.0 0.00 0.00 0.00 44 1024.1
20260831165701 60 308 2.0 3.0 0.00 0.00 0.00 43 1024.4
20260831165157 60 297 3.0 3.0 0.00 0.00 0.00 45 1024.4
20260831164652 58 22 1.0 3.0 0.00 0.00 0.00 45 1024.4
20260831164149 58 315 2.0 3.0 0.00 0.00 0.00 47 1024.5
20260831163643 57 272 1.0 5.0 0.00 0.00 0.00 48 1024.5
20260831163139 57 14 3.0 3.0 0.00 0.00 0.00 49 1024.5
20260831162638 56 289 2.0 2.0 0.00 0.00 0.00 49 1024.6
20260831162136 55 347 1.0 3.0 0.00 0.00 0.00 51 1024.7
20260831161632 55 9 0.0 3.0 0.00 0.00 0.00 51 1024.8
20260831161129 55 28 0.0 3.0 0.00 0.00 0.00 51 1024.9
20260831160627 54 29 1.0 3.0 0.00 0.00 0.00 52 1024.9
20260831160123 53 34 1.0 2.0 0.00 0.00 0.00 55 1024.9
20260831155622 53 37 0.0 1.0 0.00 0.00 0.00 54 1024.9
20260831155118 51 99 0.0 1.0 0.00 0.00 0.00 57 1025.1
20260831154614 51 63 1.0 1.0 0.00 0.00 0.00 58 1025.1
20260831154114 51 350 0.0 0.0 0.00 0.00 0.00 59 1025.1
20260831153613 50 35 0.0 0.0 0.00 0.00 0.00 60 1025.4
20260831153110 49 153 0.0 0.0 0.00 0.00 0.00 61 1024.9
20260831152605 48 191 0.0 1.0 0.00 0.00 0.00 64 1025.2
20260831152101 47 107 0.0 0.0 0.00 0.00 0.00 66 1025.4
20260831151600 46 127 0.0 0.0 0.00 0.00 0.00 68 1025.2
20260831151054 44 129 0.0 0.0 0.00 0.00 0.00 71 1025.1
20260831150549 43 106 0.0 0.0 0.00 0.00 0.00 74 1025.4
20260831150046 42 172 0.0 0.0 0.00 0.00 0.00 75 1025.4
20260831145534 43 147 0.0 0.0 0.00 0.00 0.00 75 1025.2
20260831145031 40 147 0.0 0.0 0.00 0.00 0.00 79 1025.2
20260831144526 39 147 0.0 0.0 0.00 0.00 0.00 84 1025.4
20260831144021 37 147 0.0 0.0 0.00 0.00 0.00 87 1025.4
20260831143516 35 147 0.0 0.0 0.00 0.00 0.00 95 1025.4
20260831143012 32 147 0.0 0.0 0.00 0.00 0.00 97 1025.4
20260831142508 31 147 0.0 0.0 0.00 0.00 0.00 97 1025.5
20260831142003 31 147 0.0 0.0 0.00 0.00 0.00 97 1025.7
20260831141501 31 147 0.0 0.0 0.00 0.00 0.00 97 1025.4
20260831140956 31 147 0.0 0.0 0.00 0.00 0.00 97 1025.4
20260831140456 31 147 0.0 0.0 0.00 0.00 0.00 97 1025.4
20260831135955 31 147 0.0 0.0 0.00 0.00 0.00 97 1025.4
20260831135454 31 147 0.0 0.0 0.00 0.00 0.00 97 1025.6
20260831134949 31 147 0.0 0.0 0.00 0.00 0.00 98 1025.8
20260831134446 31 147 0.0 0.0 0.00 0.00 0.00 98 1025.6
20260831133945 30 147 0.0 0.0 0.00 0.00 0.00 98 1025.5
20260831133440 30 147 0.0 0.0 0.00 0.00 0.00 98 1025.5
20260831132936 30 147 0.0 0.0 0.00 0.00 0.00 98 1025.2
20260831132431 30 147 0.0 0.0 0.00 0.00 0.00 98 1025.4
20260831131931 30 147 0.0 0.0 0.00 0.00 0.00 98 1025.1
20260831131426 30 147 0.0 0.0 0.00 0.00 0.00 98 1025.2
20260831130921 30 147 0.0 0.0 0.00 0.00 0.00 98 1025.1
20260831130417 30 147 0.0 0.0 0.00 0.00 0.00 98 1025.1
20260831125916 30 147 0.0 0.0 0.00 0.00 0.00 97 1025.1
20260831125411 30 147 0.0 0.0 0.00 0.00 0.00 97 1025.0
20260831124907 30 147 0.0 0.0 0.00 0.00 0.00 97 1024.9
20260831124403 30 147 0.0 0.0 0.00 0.00 0.00 97 1025.1
20260831123902 30 147 0.0 0.0 0.00 0.00 0.00 97 1025.1
20260831123401 31 148 0.0 0.0 0.00 0.00 0.00 97 1025.0
20260831122902 31 147 0.0 0.0 0.00 0.00 0.00 97 1024.9
20260831122357 30 147 0.0 0.0 0.00 0.00 0.00 97 1025.0
20260831121852 30 147 0.0 0.0 0.00 0.00 0.00 97 1025.1
20260831121348 31 147 0.0 0.0 0.00 0.00 0.00 97 1024.8
20260831120843 31 147 0.0 0.0 0.00 0.00 0.00 96 1024.9
20260831120338 31 148 0.0 0.0 0.00 0.00 0.00 96 1025.0
20260831115833 31 147 0.0 0.0 0.00 0.00 0.00 96 1025.0
20260831115329 31 147 0.0 0.0 0.00 0.00 0.00 96 1024.9
20260831114828 31 147 0.0 0.0 0.00 0.00 0.00 96 1024.8
20260831114327 31 147 0.0 0.0 0.00 0.00 0.00 96 1024.8
20260831113823 31 147 0.0 0.0 0.00 0.00 0.00 96 1024.8
20260831113323 31 147 0.0 0.0 0.00 0.00 0.00 96 1024.9
20260831112817 31 147 0.0 0.0 0.00 0.00 0.00 96 1024.9
20260831112313 32 147 0.0 0.0 0.00 0.00 0.00 96 1024.8
20260831111808 32 147 0.0 0.0 0.00 0.00 0.00 96 1024.7
20260831111304 32 147 0.0 0.0 0.00 0.00 0.00 96 1024.7
20260831110800 32 147 0.0 0.0 0.00 0.00 0.00 96 1024.7
20260831110255 32 147 0.0 0.0 0.00 0.00 0.00 95 1024.6
20260831105753 32 147 0.0 0.0 0.00 0.00 0.00 95 1024.6
20260831105249 32 147 0.0 0.0 0.00 0.00 0.00 95 1024.5
20260831104743 32 147 0.0 0.0 0.00 0.00 0.00 94 1024.7
20260831104240 32 147 0.0 0.0 0.00 0.00 0.00 94 1024.6
20260831103740 32 147 0.0 0.0 0.00 0.00 0.00 94 1024.6
20260831103236 32 147 0.0 0.0 0.00 0.00 0.00 94 1024.7
20260831102735 32 147 0.0 0.0 0.00 0.00 0.00 94 1024.7
20260831102230 32 147 0.0 0.0 0.00 0.00 0.00 94 1024.7
20260831101726 32 147 0.0 0.0 0.00 0.00 0.00 94 1024.7
20260831101221 33 147 0.0 0.0 0.00 0.00 0.00 93 1024.4
20260831100717 33 148 0.0 0.0 0.00 0.00 0.00 93 1024.6
20260831100213 33 148 0.0 0.0 0.00 0.00 0.00 93 1024.5
20260831095711 33 147 0.0 0.0 0.00 0.00 0.00 93 1024.5
20260831095206 33 147 0.0 0.0 0.00 0.00 0.00 92 1024.5
20260831094702 33 147 0.0 0.0 0.00 0.00 0.00 92 1024.6
20260831094158 33 147 0.0 0.0 0.00 0.00 0.00 92 1024.6
20260831093654 33 147 0.0 0.0 0.00 0.00 0.00 91 1024.4
20260831093149 33 147 0.0 0.0 0.00 0.00 0.00 91 1024.4
20260831092645 34 147 0.0 0.0 0.00 0.00 0.00 91 1024.4
20260831092141 34 147 0.0 0.0 0.00 0.00 0.00 91 1024.5
20260831091640 34 147 0.0 0.0 0.00 0.00 0.00 91 1024.4
20260831091136 34 147 0.0 0.0 0.00 0.00 0.00 91 1024.2
20260831090631 34 147 0.0 0.0 0.00 0.00 0.00 90 1024.5
20260831090127 34 147 0.0 0.0 0.00 0.00 0.00 90 1024.6
20260831085622 35 147 0.0 0.0 0.00 0.00 0.00 89 1024.1
20260831085117 35 147 0.0 0.0 0.00 0.00 0.00 89 1024.2
20260831084613 35 147 0.0 0.0 0.00 0.00 0.00 90 1024.4
20260831084109 35 147 0.0 0.0 0.00 0.00 0.00 90 1024.2
20260831083606 35 147 0.0 0.0 0.00 0.00 0.00 89 1024.4
20260831083106 35 147 0.0 0.0 0.00 0.00 0.00 89 1024.4
20260831082604 35 147 0.0 0.0 0.00 0.00 0.00 88 1024.4
20260831082059 36 147 0.0 0.0 0.00 0.00 0.00 87 1024.2
20260831081555 36 147 0.0 0.0 0.00 0.00 0.00 87 1024.5
20260831081052 36 148 0.0 0.0 0.00 0.00 0.00 87 1024.2
20260831080552 36 147 0.0 0.0 0.00 0.00 0.00 86 1024.4
20260831080048 37 148 0.0 0.0 0.00 0.00 0.00 87 1024.5
20260831075548 37 147 0.0 0.0 0.00 0.00 0.00 87 1024.2
20260831075043 37 147 0.0 0.0 0.00 0.00 0.00 86 1024.5
20260831074543 37 146 0.0 0.0 0.00 0.00 0.00 86 1024.2
20260831074042 37 147 0.0 0.0 0.00 0.00 0.00 86 1024.2
20260831073538 37 148 0.0 0.0 0.00 0.00 0.00 85 1024.1